Time,TemperatureF,DewpointF,PressureIn,WindDirection,WindDirectionDegrees,WindSpeedMPH,WindSpeedGustMPH,Humidity,HourlyPrecipIn,Conditions,Clouds,dailyrainin,SoftwareType,DateUTC
2013-09-13 00:00:00,75.8,68.5,29.98,NNW,344,0.0,0.0,78,0.00,,CLR,0.00,VWS V14.01,2013-09-13 05:00:00,
2013-09-13 00:03:00,75.8,68.8,29.97,NNW,344,0.0,0.0,79,0.00,,CLR,0.00,VWS V14.01,2013-09-13 05:03:00,
2013-09-13 00:08:00,75.8,68.8,29.97,NNW,344,0.0,0.0,79,0.00,,CLR,0.00,VWS V14.01,2013-09-13 05:08:00,
2013-09-13 00:10:00,75.8,68.5,29.98,NNW,344,0.0,0.0,78,0.00,,,0.00,VWS V14.01,2013-09-13 05:10:00,
2013-09-13 00:13:00,75.8,68.8,29.97,NNW,344,0.0,0.0,79,0.00,,CLR,0.00,VWS V14.01,2013-09-13 05:13:00,
2013-09-13 00:18:00,75.8,68.8,29.98,NNW,344,0.0,0.0,79,0.00,,CLR,0.00,VWS V14.01,2013-09-13 05:18:00,
2013-09-13 00:20:00,75.8,68.8,29.97,NNW,344,0.0,0.0,79,0.00,,CLR,0.00,VWS V14.01,2013-09-13 05:20:00,
2013-09-13 00:23:00,76.0,69.4,29.98,NNW,344,0.0,0.0,80,0.00,,CLR,0.00,VWS V14.01,2013-09-13 05:23:00,
2013-09-13 00:28:00,76.0,69.0,29.98,NNW,344,0.0,0.0,79,0.00,,CLR,0.00,VWS V14.01,2013-09-13 05:28:00,
2013-09-13 00:30:00,75.8,68.8,29.98,NNW,344,0.0,0.0,79,0.00,,CLR,0.00,VWS V14.01,2013-09-13 05:30:00,
2013-09-13 00:33:00,76.2,69.2,29.97,NNW,344,0.0,0.0,79,0.00,,CLR,0.00,VWS V14.01,2013-09-13 05:33:00,
2013-09-13 00:38:00,76.3,69.3,29.97,NNW,344,0.0,0.0,79,0.00,,CLR,0.00,VWS V14.01,2013-09-13 05:38:00,
2013-09-13 00:40:00,76.0,69.0,29.98,NNW,344,0.0,0.0,79,0.00,,CLR,0.00,VWS V14.01,2013-09-13 05:40:00,
2013-09-13 00:43:00,76.5,69.1,29.97,NNW,344,0.0,0.0,78,0.00,,CLR,0.00,VWS V14.01,2013-09-13 05:43:00,
2013-09-13 00:48:00,76.5,69.1,29.97,NNW,344,0.0,0.0,78,0.00,,CLR,0.00,VWS V14.01,2013-09-13 05:48:00,
2013-09-13 00:50:00,76.2,69.2,29.97,NNW,344,0.0,0.0,79,0.00,,,0.00,VWS V14.01,2013-09-13 05:50:00,
2013-09-13 00:53:00,76.7,69.3,29.97,NNW,344,0.0,0.0,78,0.00,,CLR,0.00,VWS V14.01,2013-09-13 05:53:00,
2013-09-13 00:58:00,76.7,69.3,29.97,NNW,344,0.0,0.0,78,0.00,,CLR,0.00,VWS V14.01,2013-09-13 05:58:00,
2013-09-13 01:00:00,76.5,69.1,29.97,NNW,344,0.0,0.0,78,0.00,,CLR,0.00,VWS V14.01,2013-09-13 06:00:00,
2013-09-13 01:03:00,76.7,69.3,29.97,NNW,344,0.0,0.0,78,0.00,,BKN095,0.00,VWS V14.01,2013-09-13 06:03:00,
2013-09-13 01:08:00,76.5,69.1,29.97,NNW,344,0.0,0.0,78,0.00,,BKN095,0.00,VWS V14.01,2013-09-13 06:08:00,
2013-09-13 01:10:00,76.7,69.3,29.97,NNW,344,0.0,0.0,78,0.00,,CLR,0.00,VWS V14.01,2013-09-13 06:10:00,
2013-09-13 01:13:00,76.5,69.1,29.97,NNW,344,0.0,0.0,78,0.00,,BKN095,0.00,VWS V14.01,2013-09-13 06:13:00,
2013-09-13 01:18:00,76.5,69.1,29.96,NNW,344,0.0,0.0,78,0.00,,BKN095,0.00,VWS V14.01,2013-09-13 06:18:00,
2013-09-13 01:20:00,76.7,69.3,29.97,NNW,344,0.0,0.0,78,0.00,,CLR,0.00,VWS V14.01,2013-09-13 06:20:00,
2013-09-13 01:23:00,76.3,68.9,29.96,NNW,344,0.0,0.0,78,0.00,,BKN095,0.00,VWS V14.01,2013-09-13 06:23:00,
2013-09-13 01:28:00,76.2,68.8,29.96,NNW,344,0.0,0.0,78,0.00,,BKN095,0.00,VWS V14.01,2013-09-13 06:28:00,
2013-09-13 01:30:00,76.5,69.1,29.96,NNW,344,0.0,0.0,78,0.00,,CLR,0.00,VWS V14.01,2013-09-13 06:30:00,
2013-09-13 01:33:00,76.0,69.0,29.96,NNW,344,0.0,0.0,79,0.00,,BKN095,0.00,VWS V14.01,2013-09-13 06:33:00,
2013-09-13 01:38:00,75.8,69.2,29.96,NNW,344,0.0,0.0,80,0.00,,BKN095,0.00,VWS V14.01,2013-09-13 06:38:00,
2013-09-13 01:40:00,76.2,68.8,29.96,NNW,344,0.0,0.0,78,0.00,,CLR,0.00,VWS V14.01,2013-09-13 06:40:00,
2013-09-13 01:43:00,75.6,69.0,29.96,NNW,344,0.0,0.0,80,0.00,,BKN095,0.00,VWS V14.01,2013-09-13 06:43:00,
2013-09-13 01:48:00,75.5,69.3,29.96,NNW,344,0.0,0.0,81,0.00,,BKN095,0.00,VWS V14.01,2013-09-13 06:48:00,
2013-09-13 01:50:00,76.0,69.0,29.96,NNW,344,0.0,0.0,79,0.00,,CLR,0.00,VWS V14.01,2013-09-13 06:50:00,
2013-09-13 01:53:00,75.1,69.2,29.96,NNW,344,0.0,0.0,82,0.00,,BKN095,0.00,VWS V14.01,2013-09-13 06:53:00,
2013-09-13 01:58:00,74.9,69.0,29.96,NNW,344,0.0,0.0,82,0.00,,BKN095,0.00,VWS V14.01,2013-09-13 06:58:00,
2013-09-13 02:00:00,75.5,69.3,29.96,NNW,344,0.0,0.0,81,0.00,,CLR,0.00,VWS V14.01,2013-09-13 07:00:00,
2013-09-13 02:03:00,74.8,68.9,29.96,NNW,344,0.0,0.0,82,0.00,,FEW110,0.00,VWS V14.01,2013-09-13 07:03:00,
2013-09-13 02:08:00,74.8,69.3,29.96,NNW,344,0.0,0.0,83,0.00,,FEW110,0.00,VWS V14.01,2013-09-13 07:08:00,
2013-09-13 02:10:00,75.1,69.2,29.96,NNW,344,0.0,0.0,82,0.00,,CLR,0.00,VWS V14.01,2013-09-13 07:10:00,
2013-09-13 02:13:00,74.6,69.1,29.96,NNW,344,0.0,0.0,83,0.00,,FEW110,0.00,VWS V14.01,2013-09-13 07:13:00,
2013-09-13 02:18:00,74.4,68.9,29.96,NNW,344,0.0,0.0,83,0.00,,FEW110,0.00,VWS V14.01,2013-09-13 07:18:00,
2013-09-13 02:20:00,74.8,68.9,29.96,NNW,344,0.0,0.0,82,0.00,,CLR,0.00,VWS V14.01,2013-09-13 07:20:00,
2013-09-13 02:23:00,74.2,68.7,29.96,NNW,344,0.0,0.0,83,0.00,,FEW110,0.00,VWS V14.01,2013-09-13 07:23:00,
2013-09-13 02:28:00,74.2,69.1,29.96,NNW,344,0.0,0.0,84,0.00,,FEW110,0.00,VWS V14.01,2013-09-13 07:28:00,
2013-09-13 02:30:00,74.4,68.9,29.96,NNW,344,0.0,0.0,83,0.00,,CLR,0.00,VWS V14.01,2013-09-13 07:30:00,
2013-09-13 02:33:00,74.1,69.0,29.96,NNW,344,0.0,0.0,84,0.00,,FEW110,0.00,VWS V14.01,2013-09-13 07:33:00,
2013-09-13 02:38:00,74.1,69.3,29.96,NNW,344,0.0,0.0,85,0.00,,FEW110,0.00,VWS V14.01,2013-09-13 07:38:00,
2013-09-13 02:40:00,74.2,69.1,29.96,NNW,344,0.0,0.0,84,0.00,,CLR,0.00,VWS V14.01,2013-09-13 07:40:00,
2013-09-13 02:43:00,73.9,69.1,29.96,NNW,344,0.0,0.0,85,0.00,,FEW110,0.00,VWS V14.01,2013-09-13 07:43:00,
2013-09-13 02:48:00,73.9,69.4,29.95,NNW,344,0.0,0.0,86,0.00,,FEW110,0.00,VWS V14.01,2013-09-13 07:48:00,
2013-09-13 02:50:00,74.1,69.0,29.96,NNW,344,0.0,0.0,84,0.00,,CLR,0.00,VWS V14.01,2013-09-13 07:50:00,
2013-09-13 02:53:00,73.9,69.4,29.95,NNW,344,0.0,0.0,86,0.00,,FEW110,0.00,VWS V14.01,2013-09-13 07:53:00,
2013-09-13 02:58:00,73.7,69.3,29.95,NNW,344,0.0,0.0,86,0.00,,FEW110,0.00,VWS V14.01,2013-09-13 07:58:00,
2013-09-13 03:00:00,73.9,69.1,29.95,NNW,344,0.0,0.0,85,0.00,,CLR,0.00,VWS V14.01,2013-09-13 08:00:00,
2013-09-13 03:03:00,73.7,69.3,29.95,NNW,344,0.0,0.0,86,0.00,,BKN120,0.00,VWS V14.01,2013-09-13 08:03:00,
2013-09-13 03:08:00,73.5,69.1,29.95,NNW,344,0.0,0.0,86,0.00,,BKN120,0.00,VWS V14.01,2013-09-13 08:08:00,
2013-09-13 03:10:00,73.7,69.3,29.95,NNW,344,0.0,0.0,86,0.00,,CLR,0.00,VWS V14.01,2013-09-13 08:10:00,
2013-09-13 03:13:00,73.5,69.4,29.95,NNW,344,0.0,0.0,87,0.00,,BKN120,0.00,VWS V14.01,2013-09-13 08:13:00,
2013-09-13 03:18:00,73.4,69.3,29.95,NNW,344,0.0,0.0,87,0.00,,BKN120,0.00,VWS V14.01,2013-09-13 08:18:00,
2013-09-13 03:20:00,73.5,69.1,29.95,NNW,344,0.0,0.0,86,0.00,,CLR,0.00,VWS V14.01,2013-09-13 08:20:00,
2013-09-13 03:23:00,73.4,69.3,29.95,NNW,344,0.0,0.0,87,0.00,,BKN120,0.00,VWS V14.01,2013-09-13 08:23:00,
2013-09-13 03:28:00,73.2,69.1,29.95,NNW,344,0.0,0.0,87,0.00,,BKN120,0.00,VWS V14.01,2013-09-13 08:28:00,
2013-09-13 03:30:00,73.4,69.3,29.95,NNW,344,0.0,0.0,87,0.00,,CLR,0.00,VWS V14.01,2013-09-13 08:30:00,
2013-09-13 03:33:00,73.0,68.9,29.95,NNW,344,0.0,0.0,87,0.00,,BKN120,0.00,VWS V14.01,2013-09-13 08:33:00,
2013-09-13 03:38:00,73.0,68.9,29.95,NNW,344,0.0,0.0,87,0.00,,BKN120,0.00,VWS V14.01,2013-09-13 08:38:00,
2013-09-13 03:40:00,73.2,69.1,29.95,NNW,344,0.0,0.0,87,0.00,,CLR,0.00,VWS V14.01,2013-09-13 08:40:00,
2013-09-13 03:43:00,72.8,68.7,29.95,NNW,344,0.0,0.0,87,0.00,,BKN120,0.00,VWS V14.01,2013-09-13 08:43:00,
2013-09-13 03:48:00,72.8,69.0,29.94,NNW,344,0.0,0.0,88,0.00,,BKN120,0.00,VWS V14.01,2013-09-13 08:48:00,
2013-09-13 03:50:00,73.0,68.9,29.95,NNW,344,0.0,0.0,87,0.00,,CLR,0.00,VWS V14.01,2013-09-13 08:50:00,
2013-09-13 03:53:00,72.7,68.9,29.94,NNW,344,0.0,0.0,88,0.00,,BKN120,0.00,VWS V14.01,2013-09-13 08:53:00,
2013-09-13 03:58:00,72.5,68.8,29.94,NNW,344,0.0,0.0,88,0.00,,BKN120,0.00,VWS V14.01,2013-09-13 08:58:00,
2013-09-13 04:00:00,72.8,69.0,29.94,NNW,344,0.0,0.0,88,0.00,,CLR,0.00,VWS V14.01,2013-09-13 09:00:00,
2013-09-13 04:03:00,72.3,68.6,29.94,NNW,344,0.0,0.0,88,0.00,,FEW120,0.00,VWS V14.01,2013-09-13 09:03:00,
2013-09-13 04:08:00,72.3,68.6,29.94,NNW,344,0.0,0.0,88,0.00,,FEW120,0.00,VWS V14.01,2013-09-13 09:08:00,
2013-09-13 04:10:00,72.5,68.8,29.94,NNW,344,0.0,0.0,88,0.00,,CLR,0.00,VWS V14.01,2013-09-13 09:10:00,
2013-09-13 04:13:00,72.2,68.4,29.94,NNW,344,0.0,0.0,88,0.00,,FEW120,0.00,VWS V14.01,2013-09-13 09:13:00,
2013-09-13 04:18:00,72.0,68.3,29.94,NNW,344,0.0,0.0,88,0.00,,FEW120,0.00,VWS V14.01,2013-09-13 09:18:00,
2013-09-13 04:20:00,72.3,68.6,29.94,NNW,344,0.0,0.0,88,0.00,,CLR,0.00,VWS V14.01,2013-09-13 09:20:00,
2013-09-13 04:23:00,71.8,68.1,29.94,NNW,344,0.0,0.0,88,0.00,,FEW120,0.00,VWS V14.01,2013-09-13 09:23:00,
2013-09-13 04:28:00,71.8,68.1,29.94,NNW,344,0.0,0.0,88,0.00,,FEW120,0.00,VWS V14.01,2013-09-13 09:28:00,
2013-09-13 04:30:00,72.0,68.3,29.94,NNW,344,0.0,0.0,88,0.00,,CLR,0.00,VWS V14.01,2013-09-13 09:30:00,
2013-09-13 04:33:00,71.8,68.4,29.94,NNW,344,0.0,0.0,89,0.00,,FEW120,0.00,VWS V14.01,2013-09-13 09:33:00,
2013-09-13 04:38:00,71.8,68.4,29.94,NNW,344,0.0,0.0,89,0.00,,FEW120,0.00,VWS V14.01,2013-09-13 09:38:00,
2013-09-13 04:40:00,71.8,68.1,29.94,NNW,344,0.0,0.0,88,0.00,,CLR,0.00,VWS V14.01,2013-09-13 09:40:00,
2013-09-13 04:43:00,71.8,68.7,29.94,NNW,344,0.0,0.0,90,0.00,,FEW120,0.00,VWS V14.01,2013-09-13 09:43:00,
2013-09-13 04:48:00,71.8,68.7,29.93,NNW,344,0.0,0.0,90,0.00,,FEW120,0.00,VWS V14.01,2013-09-13 09:48:00,
2013-09-13 04:50:00,71.8,68.4,29.94,NNW,344,0.0,0.0,89,0.00,,CLR,0.00,VWS V14.01,2013-09-13 09:50:00,
2013-09-13 04:53:00,71.8,68.7,29.93,NNW,344,0.0,0.0,90,0.00,,FEW120,0.00,VWS V14.01,2013-09-13 09:53:00,
2013-09-13 04:58:00,71.8,68.7,29.93,NNW,344,0.0,0.0,90,0.00,,FEW120,0.00,VWS V14.01,2013-09-13 09:58:00,
2013-09-13 05:00:00,71.8,68.7,29.93,NNW,344,0.0,0.0,90,0.00,,CLR,0.00,VWS V14.01,2013-09-13 10:00:00,
2013-09-13 05:03:00,71.8,68.7,29.93,NNW,344,0.0,0.0,90,0.00,,BKN110,0.00,VWS V14.01,2013-09-13 10:03:00,
2013-09-13 05:08:00,71.6,68.5,29.93,NNW,344,0.0,0.0,90,0.00,,BKN110,0.00,VWS V14.01,2013-09-13 10:08:00,
2013-09-13 05:10:00,71.8,68.7,29.93,NNW,344,0.0,0.0,90,0.00,,CLR,0.00,VWS V14.01,2013-09-13 10:10:00,
2013-09-13 05:13:00,71.6,68.5,29.93,NNW,344,0.0,0.0,90,0.00,,BKN110,0.00,VWS V14.01,2013-09-13 10:13:00,
2013-09-13 05:18:00,71.6,68.5,29.94,NNW,344,0.0,0.0,90,0.00,,BKN110,0.00,VWS V14.01,2013-09-13 10:18:00,
2013-09-13 05:20:00,71.6,68.5,29.93,NNW,344,0.0,0.0,90,0.00,,CLR,0.00,VWS V14.01,2013-09-13 10:20:00,
2013-09-13 05:23:00,71.5,68.4,29.94,NNW,344,0.0,0.0,90,0.00,,BKN110,0.00,VWS V14.01,2013-09-13 10:23:00,
2013-09-13 05:28:00,71.5,68.4,29.94,NNW,344,0.0,0.0,90,0.00,,BKN110,0.00,VWS V14.01,2013-09-13 10:28:00,
2013-09-13 05:30:00,71.6,68.5,29.94,NNW,344,0.0,0.0,90,0.00,,,0.00,VWS V14.01,2013-09-13 10:30:00,
2013-09-13 05:33:00,71.3,68.2,29.93,NNW,344,0.0,0.0,90,0.00,,BKN110,0.00,VWS V14.01,2013-09-13 10:33:00,
2013-09-13 05:38:00,71.3,68.5,29.93,NNW,344,0.0,0.0,91,0.00,,BKN110,0.00,VWS V14.01,2013-09-13 10:38:00,
2013-09-13 05:40:00,71.5,68.4,29.94,NNW,344,0.0,0.0,90,0.00,,CLR,0.00,VWS V14.01,2013-09-13 10:40:00,
2013-09-13 05:43:00,71.3,68.5,29.93,NNW,344,0.0,0.0,91,0.00,,BKN110,0.00,VWS V14.01,2013-09-13 10:43:00,
2013-09-13 05:48:00,71.1,68.3,29.93,NNW,344,0.0,0.0,91,0.00,,BKN110,0.00,VWS V14.01,2013-09-13 10:48:00,
2013-09-13 05:50:00,71.3,68.2,29.93,NNW,344,0.0,0.0,90,0.00,,CLR,0.00,VWS V14.01,2013-09-13 10:50:00,
2013-09-13 05:53:00,71.1,68.3,29.93,NNW,344,0.0,0.0,91,0.00,,BKN110,0.00,VWS V14.01,2013-09-13 10:53:00,
2013-09-13 05:58:00,71.0,68.2,29.93,NNW,344,0.0,0.0,91,0.00,,BKN110,0.00,VWS V14.01,2013-09-13 10:58:00,
2013-09-13 06:00:00,71.3,68.5,29.93,NNW,344,0.0,0.0,91,0.00,,CLR,0.00,VWS V14.01,2013-09-13 11:00:00,
2013-09-13 06:03:00,71.0,68.2,29.94,NNW,344,0.0,0.0,91,0.00,,CLR,0.00,VWS V14.01,2013-09-13 11:03:00,
2013-09-13 06:08:00,70.8,68.1,29.94,NNW,344,0.0,0.0,91,0.00,,CLR,0.00,VWS V14.01,2013-09-13 11:08:00,
2013-09-13 06:10:00,71.1,68.3,29.93,NNW,344,0.0,0.0,91,0.00,,CLR,0.00,VWS V14.01,2013-09-13 11:10:00,
2013-09-13 06:12:00,70.8,68.1,29.94,NNW,344,0.0,0.0,91,0.00,,CLR,0.00,VWS V14.01,2013-09-13 11:12:00,
2013-09-13 06:17:00,70.8,68.1,29.94,NNW,344,0.0,0.0,91,0.00,,CLR,0.00,VWS V14.01,2013-09-13 11:17:00,
2013-09-13 06:20:00,70.8,68.1,29.94,NNW,344,0.0,0.0,91,0.00,,CLR,0.00,VWS V14.01,2013-09-13 11:20:00,
2013-09-13 06:22:00,70.6,67.8,29.94,NNW,344,0.0,0.0,91,0.00,,CLR,0.00,VWS V14.01,2013-09-13 11:22:00,
2013-09-13 06:27:00,70.4,67.7,29.94,NNW,344,0.0,0.0,91,0.00,,CLR,0.00,VWS V14.01,2013-09-13 11:27:00,
2013-09-13 06:30:00,70.8,68.1,29.94,NNW,344,0.0,0.0,91,0.00,,CLR,0.00,VWS V14.01,2013-09-13 11:30:00,
2013-09-13 06:32:00,70.4,67.7,29.94,NNW,344,0.0,0.0,91,0.00,,CLR,0.00,VWS V14.01,2013-09-13 11:32:00,
2013-09-13 06:37:00,70.4,68.0,29.94,NNW,344,0.0,0.0,92,0.00,,CLR,0.00,VWS V14.01,2013-09-13 11:37:00,
2013-09-13 06:40:00,70.6,67.8,29.94,NNW,344,0.0,0.0,91,0.00,,CLR,0.00,VWS V14.01,2013-09-13 11:40:00,
2013-09-13 06:42:00,70.4,68.0,29.94,NNW,344,0.0,0.0,92,0.00,,CLR,0.00,VWS V14.01,2013-09-13 11:42:00,
2013-09-13 06:47:00,70.3,67.9,29.94,NNW,344,0.0,0.0,92,0.00,,CLR,0.00,VWS V14.01,2013-09-13 11:47:00,
2013-09-13 06:50:00,70.4,67.7,29.94,NNW,344,0.0,0.0,91,0.00,,CLR,0.00,VWS V14.01,2013-09-13 11:50:00,
2013-09-13 06:52:00,70.3,67.9,29.94,NNW,344,0.0,0.0,92,0.00,,CLR,0.00,VWS V14.01,2013-09-13 11:52:00,
2013-09-13 06:57:00,70.1,67.7,29.94,NNW,344,0.0,0.0,92,0.00,,CLR,0.00,VWS V14.01,2013-09-13 11:57:00,
2013-09-13 07:00:00,70.3,67.9,29.94,NNW,344,0.0,0.0,92,0.00,,CLR,0.00,VWS V14.01,2013-09-13 12:00:00,
2013-09-13 07:02:00,70.1,67.7,29.94,NNW,344,0.0,0.0,92,0.00,,CLR,0.00,VWS V14.01,2013-09-13 12:02:00,
2013-09-13 07:07:00,69.9,67.5,29.94,NNW,344,0.0,0.0,92,0.00,,CLR,0.00,VWS V14.01,2013-09-13 12:07:00,
2013-09-13 07:10:00,70.1,67.7,29.94,NNW,344,0.0,0.0,92,0.00,,CLR,0.00,VWS V14.01,2013-09-13 12:10:00,
2013-09-13 07:12:00,69.9,67.5,29.94,NNW,344,0.0,0.0,92,0.00,,CLR,0.00,VWS V14.01,2013-09-13 12:12:00,
2013-09-13 07:17:00,69.9,67.5,29.94,NNW,344,0.0,0.0,92,0.00,,CLR,0.00,VWS V14.01,2013-09-13 12:17:00,
2013-09-13 07:20:00,69.9,67.5,29.94,NNW,344,0.0,0.0,92,0.00,,CLR,0.00,VWS V14.01,2013-09-13 12:20:00,
2013-09-13 07:22:00,69.9,67.8,29.94,NNW,344,0.0,0.0,93,0.00,,CLR,0.00,VWS V14.01,2013-09-13 12:22:00,
2013-09-13 07:27:00,69.8,67.7,29.94,NNW,344,0.0,0.0,93,0.00,,CLR,0.00,VWS V14.01,2013-09-13 12:27:00,
2013-09-13 07:30:00,69.9,67.5,29.94,NNW,344,0.0,0.0,92,0.00,,CLR,0.00,VWS V14.01,2013-09-13 12:30:00,
2013-09-13 07:32:00,69.8,67.7,29.94,NNW,344,0.0,0.0,93,0.00,,CLR,0.00,VWS V14.01,2013-09-13 12:32:00,
2013-09-13 07:37:00,69.8,67.7,29.94,NNW,344,0.0,0.0,93,0.00,,CLR,0.00,VWS V14.01,2013-09-13 12:37:00,
2013-09-13 07:40:00,69.8,67.7,29.94,NNW,344,0.0,0.0,93,0.00,,CLR,0.00,VWS V14.01,2013-09-13 12:40:00,
2013-09-13 07:42:00,69.8,67.7,29.94,NNW,344,0.0,0.0,93,0.00,,CLR,0.00,VWS V14.01,2013-09-13 12:42:00,
2013-09-13 07:47:00,69.9,67.8,29.94,NNW,344,0.0,0.0,93,0.00,,CLR,0.00,VWS V14.01,2013-09-13 12:47:00,
2013-09-13 07:50:00,69.8,67.7,29.94,NNW,344,0.0,0.0,93,0.00,,CLR,0.00,VWS V14.01,2013-09-13 12:50:00,
2013-09-13 07:52:00,69.9,67.8,29.94,NNW,344,0.0,0.0,93,0.00,,CLR,0.00,VWS V14.01,2013-09-13 12:52:00,
2013-09-13 07:57:00,70.1,68.0,29.94,NNW,344,0.0,0.0,93,0.00,,CLR,0.00,VWS V14.01,2013-09-13 12:57:00,
2013-09-13 08:00:00,69.9,67.8,29.94,NNW,344,0.0,0.0,93,0.00,,CLR,0.00,VWS V14.01,2013-09-13 13:00:00,
2013-09-13 08:02:00,70.1,68.0,29.94,NNW,344,0.0,0.0,93,0.00,,CLR,0.00,VWS V14.01,2013-09-13 13:02:00,
2013-09-13 08:07:00,70.3,68.2,29.94,NNW,344,0.0,0.0,93,0.00,,CLR,0.00,VWS V14.01,2013-09-13 13:07:00,
2013-09-13 08:10:00,69.9,67.8,29.94,NNW,344,0.0,0.0,93,0.00,,CLR,0.00,VWS V14.01,2013-09-13 13:10:00,
2013-09-13 08:12:00,70.3,68.5,29.94,NNW,344,0.0,0.0,94,0.00,,CLR,0.00,VWS V14.01,2013-09-13 13:12:00,
2013-09-13 08:17:00,70.4,68.6,29.94,NNW,344,0.0,0.0,94,0.00,,CLR,0.00,VWS V14.01,2013-09-13 13:17:00,
2013-09-13 08:20:00,70.3,68.5,29.94,NNW,344,0.0,0.0,94,0.00,,CLR,0.00,VWS V14.01,2013-09-13 13:20:00,
2013-09-13 08:22:00,70.6,68.8,29.94,NNW,344,0.0,0.0,94,0.00,,CLR,0.00,VWS V14.01,2013-09-13 13:22:00,
2013-09-13 08:27:00,70.8,69.0,29.94,NNW,344,0.0,0.0,94,0.00,,CLR,0.00,VWS V14.01,2013-09-13 13:27:00,
2013-09-13 08:30:00,70.4,68.6,29.94,NNW,344,0.0,0.0,94,0.00,,CLR,0.00,VWS V14.01,2013-09-13 13:30:00,
2013-09-13 08:32:00,71.0,69.2,29.94,NNW,344,0.0,0.0,94,0.00,,CLR,0.00,VWS V14.01,2013-09-13 13:32:00,
2013-09-13 08:37:00,71.3,69.5,29.94,NNW,344,0.0,0.0,94,0.00,,CLR,0.00,VWS V14.01,2013-09-13 13:37:00,
2013-09-13 08:40:00,70.8,69.0,29.94,NNW,344,0.0,0.0,94,0.00,,CLR,0.00,VWS V14.01,2013-09-13 13:40:00,
2013-09-13 08:42:00,71.5,69.7,29.94,NNW,344,0.0,0.0,94,0.00,,CLR,0.00,VWS V14.01,2013-09-13 13:42:00,
2013-09-13 08:47:00,71.6,69.8,29.95,NNW,344,0.0,0.0,94,0.00,,CLR,0.00,VWS V14.01,2013-09-13 13:47:00,
2013-09-13 08:50:00,71.1,69.3,29.94,NNW,344,0.0,0.0,94,0.00,,CLR,0.00,VWS V14.01,2013-09-13 13:50:00,
2013-09-13 08:52:00,72.0,70.2,29.95,NNW,344,0.0,0.0,94,0.00,,CLR,0.00,VWS V14.01,2013-09-13 13:52:00,
2013-09-13 08:57:00,72.3,70.5,29.95,NNW,344,0.0,0.0,94,0.00,,CLR,0.00,VWS V14.01,2013-09-13 13:57:00,
2013-09-13 09:00:00,71.6,69.8,29.95,NNW,344,0.0,0.0,94,0.00,,CLR,0.00,VWS V14.01,2013-09-13 14:00:00,
2013-09-13 09:02:00,72.7,70.6,29.94,NNW,344,0.0,0.0,93,0.00,,CLR,0.00,VWS V14.01,2013-09-13 14:02:00,
2013-09-13 09:07:00,72.8,70.7,29.94,NNW,344,0.0,0.0,93,0.00,,CLR,0.00,VWS V14.01,2013-09-13 14:07:00,
2013-09-13 09:10:00,72.3,70.5,29.95,NNW,344,0.0,0.0,94,0.00,,CLR,0.00,VWS V14.01,2013-09-13 14:10:00,
2013-09-13 09:12:00,73.4,70.9,29.94,NNW,344,0.0,0.0,92,0.00,,CLR,0.00,VWS V14.01,2013-09-13 14:12:00,
2013-09-13 09:17:00,73.7,71.2,29.95,NNW,344,0.0,0.0,92,0.00,,CLR,0.00,VWS V14.01,2013-09-13 14:17:00,
2013-09-13 09:20:00,72.8,70.7,29.94,NNW,344,0.0,0.0,93,0.00,,CLR,0.00,VWS V14.01,2013-09-13 14:20:00,
2013-09-13 09:22:00,74.1,71.3,29.95,NNW,344,0.0,0.0,91,0.00,,CLR,0.00,VWS V14.01,2013-09-13 14:22:00,
2013-09-13 09:27:00,74.6,71.2,29.95,NNW,344,0.0,0.0,89,0.00,,CLR,0.00,VWS V14.01,2013-09-13 14:27:00,
2013-09-13 09:30:00,73.7,71.2,29.95,NNW,344,0.0,0.0,92,0.00,,CLR,0.00,VWS V14.01,2013-09-13 14:30:00,
2013-09-13 09:32:00,74.9,69.4,29.95,NNW,344,0.0,0.0,83,0.00,,CLR,0.00,VWS V14.01,2013-09-13 14:32:00,
2013-09-13 09:37:00,75.5,68.5,29.95,NNW,344,0.0,0.0,79,0.00,,CLR,0.00,VWS V14.01,2013-09-13 14:37:00,
2013-09-13 09:40:00,74.4,71.3,29.95,NNW,344,0.0,0.0,90,0.00,,CLR,0.00,VWS V14.01,2013-09-13 14:40:00,
2013-09-13 09:42:00,76.0,67.9,29.95,NNW,344,0.0,0.0,76,0.00,,CLR,0.00,VWS V14.01,2013-09-13 14:42:00,
2013-09-13 09:47:00,76.5,66.4,29.95,NNW,344,0.0,0.0,71,0.00,,CLR,0.00,VWS V14.01,2013-09-13 14:47:00,
2013-09-13 09:50:00,75.3,68.7,29.95,NNW,344,0.0,0.0,80,0.00,,CLR,0.00,VWS V14.01,2013-09-13 14:50:00,
2013-09-13 09:52:00,77.1,64.4,29.95,NNW,344,0.0,0.0,65,0.00,,CLR,0.00,VWS V14.01,2013-09-13 14:52:00,
2013-09-13 09:57:00,77.8,66.0,29.95,NNW,344,0.0,0.0,67,0.00,,CLR,0.00,VWS V14.01,2013-09-13 14:57:00,
2013-09-13 10:00:00,76.3,67.0,29.95,NNW,344,0.0,0.0,73,0.00,,CLR,0.00,VWS V14.01,2013-09-13 15:00:00,
2013-09-13 10:02:00,78.5,66.2,29.95,NNW,344,0.0,0.0,66,0.00,,CLR,0.00,VWS V14.01,2013-09-13 15:02:00,
2013-09-13 10:07:00,78.9,64.3,29.95,NNW,344,0.0,0.0,61,0.00,,CLR,0.00,VWS V14.01,2013-09-13 15:07:00,
2013-09-13 10:10:00,77.6,65.3,29.95,NNW,344,0.0,0.0,66,0.00,,CLR,0.00,VWS V14.01,2013-09-13 15:10:00,
2013-09-13 10:12:00,79.4,64.8,29.95,NNW,344,0.0,0.0,61,0.00,,CLR,0.00,VWS V14.01,2013-09-13 15:12:00,
2013-09-13 10:17:00,79.8,66.1,29.95,NNW,344,0.0,0.0,63,0.00,,CLR,0.00,VWS V14.01,2013-09-13 15:17:00,
2013-09-13 10:20:00,78.9,64.8,29.95,NNW,344,0.0,0.0,62,0.00,,CLR,0.00,VWS V14.01,2013-09-13 15:20:00,
2013-09-13 10:22:00,80.2,64.6,29.95,NNW,344,0.0,0.0,59,0.00,,CLR,0.00,VWS V14.01,2013-09-13 15:22:00,
2013-09-13 10:27:00,80.6,63.0,29.95,ESE,122,0.0,0.0,55,0.00,,CLR,0.00,VWS V14.01,2013-09-13 15:27:00,
2013-09-13 10:30:00,79.8,65.6,29.95,NNW,344,0.0,0.0,62,0.00,,CLR,0.00,VWS V14.01,2013-09-13 15:30:00,
2013-09-13 10:32:00,80.9,63.2,29.95,ESE,122,0.0,0.0,55,0.00,,CLR,0.00,VWS V14.01,2013-09-13 15:32:00,
2013-09-13 10:37:00,81.5,62.7,29.95,ESE,122,0.0,0.0,53,0.00,,CLR,0.00,VWS V14.01,2013-09-13 15:37:00,
2013-09-13 10:40:00,80.6,63.5,29.95,ESE,122,0.0,0.0,56,0.00,,CLR,0.00,VWS V14.01,2013-09-13 15:40:00,
2013-09-13 10:42:00,82.1,63.8,29.95,NW,311,0.0,0.0,54,0.00,,CLR,0.00,VWS V14.01,2013-09-13 15:42:00,
2013-09-13 10:47:00,82.7,63.8,29.95,NNE,24,0.0,0.0,53,0.00,,CLR,0.00,VWS V14.01,2013-09-13 15:47:00,
2013-09-13 10:50:00,81.3,64.1,29.95,ESE,122,0.0,0.0,56,0.00,,CLR,0.00,VWS V14.01,2013-09-13 15:50:00,
2013-09-13 10:52:00,83.1,62.5,29.95,NNE,24,0.0,0.0,50,0.00,,CLR,0.00,VWS V14.01,2013-09-13 15:52:00,
2013-09-13 10:57:00,83.5,63.5,29.95,NNE,24,0.0,0.0,51,0.00,,CLR,0.00,VWS V14.01,2013-09-13 15:57:00,
2013-09-13 11:00:00,82.7,63.8,29.95,NNE,24,0.0,0.0,53,0.00,,CLR,0.00,VWS V14.01,2013-09-13 16:00:00,
2013-09-13 11:02:00,83.8,63.2,29.95,NNE,24,0.0,0.0,50,0.00,,SCT075,0.00,VWS V14.01,2013-09-13 16:02:00,
2013-09-13 11:07:00,84.2,61.8,29.95,NNE,24,0.0,0.0,47,0.00,,SCT075,0.00,VWS V14.01,2013-09-13 16:07:00,
2013-09-13 11:10:00,83.5,62.9,29.95,NNE,24,0.0,0.0,50,0.00,,CLR,0.00,VWS V14.01,2013-09-13 16:10:00,
2013-09-13 11:12:00,84.6,63.9,29.95,NNE,24,0.0,0.0,50,0.00,,SCT075,0.00,VWS V14.01,2013-09-13 16:12:00,
2013-09-13 11:17:00,85.0,62.5,29.95,NNE,24,0.0,0.0,47,0.00,,SCT075,0.00,VWS V14.01,2013-09-13 16:17:00,
2013-09-13 11:20:00,84.2,61.8,29.95,NNE,24,0.0,0.0,47,0.00,,CLR,0.00,VWS V14.01,2013-09-13 16:20:00,
2013-09-13 11:22:00,85.6,64.3,29.95,NNE,24,0.0,0.0,49,0.00,,SCT075,0.00,VWS V14.01,2013-09-13 16:22:00,
2013-09-13 11:27:00,86.2,61.1,29.95,NNE,24,0.0,0.0,43,0.00,,SCT075,0.00,VWS V14.01,2013-09-13 16:27:00,
2013-09-13 11:30:00,85.0,63.1,29.95,NNE,24,0.0,0.0,48,0.00,,CLR,0.00,VWS V14.01,2013-09-13 16:30:00,
2013-09-13 11:32:00,86.9,62.4,29.95,NNE,24,0.0,0.0,44,0.00,,SCT075,0.00,VWS V14.01,2013-09-13 16:32:00,
2013-09-13 11:37:00,87.5,63.6,29.95,NNE,24,0.0,0.0,45,0.00,,SCT075,0.00,VWS V14.01,2013-09-13 16:37:00,
2013-09-13 11:40:00,86.0,62.2,29.95,NNE,24,0.0,0.0,45,0.00,,CLR,0.00,VWS V14.01,2013-09-13 16:40:00,
2013-09-13 11:42:00,87.9,60.6,29.95,North,9,0.0,0.0,40,0.00,,SCT075,0.00,VWS V14.01,2013-09-13 16:42:00,
2013-09-13 11:47:00,88.3,63.0,29.94,North,9,0.0,0.0,43,0.00,,SCT075,0.00,VWS V14.01,2013-09-13 16:47:00,
2013-09-13 11:50:00,87.5,62.3,29.95,NNE,24,0.0,0.0,43,0.00,,CLR,0.00,VWS V14.01,2013-09-13 16:50:00,
2013-09-13 11:52:00,88.5,62.5,29.94,North,9,0.0,0.0,42,0.00,,SCT075,0.00,VWS V14.01,2013-09-13 16:52:00,
2013-09-13 11:57:00,88.8,60.7,29.94,North,5,0.0,0.0,39,0.00,,SCT075,0.00,VWS V14.01,2013-09-13 16:57:00,
2013-09-13 12:00:00,88.1,62.1,29.94,North,9,0.0,0.0,42,0.00,,CLR,0.00,VWS V14.01,2013-09-13 17:00:00,
2013-09-13 12:02:00,89.0,59.4,29.94,North,5,0.0,0.0,37,0.00,,FEW100,0.00,VWS V14.01,2013-09-13 17:02:00,
2013-09-13 12:07:00,89.4,62.6,29.94,North,5,0.0,0.0,41,0.00,,FEW100,0.00,VWS V14.01,2013-09-13 17:07:00,
2013-09-13 12:10:00,88.8,60.7,29.94,North,5,0.0,0.0,39,0.00,,CLR,0.00,VWS V14.01,2013-09-13 17:10:00,
2013-09-13 12:12:00,89.8,60.8,29.94,North,5,0.0,0.0,38,0.00,,FEW100,0.00,VWS V14.01,2013-09-13 17:12:00,
2013-09-13 12:17:00,90.5,59.9,29.93,North,5,0.0,0.0,36,0.00,,FEW100,0.00,VWS V14.01,2013-09-13 17:17:00,
2013-09-13 12:20:00,89.2,62.4,29.94,North,5,0.0,0.0,41,0.00,,CLR,0.00,VWS V14.01,2013-09-13 17:20:00,
2013-09-13 12:22:00,91.3,59.0,29.93,NW,321,0.0,0.0,34,0.00,,FEW100,0.00,VWS V14.01,2013-09-13 17:22:00,
2013-09-13 12:27:00,91.8,63.3,29.93,NNW,336,0.0,0.0,39,0.00,,FEW100,0.00,VWS V14.01,2013-09-13 17:27:00,
2013-09-13 12:30:00,90.2,61.2,29.93,North,5,0.0,0.0,38,0.00,,CLR,0.00,VWS V14.01,2013-09-13 17:30:00,
2013-09-13 12:32:00,92.4,63.9,29.93,NNW,336,0.0,0.0,39,0.00,,FEW100,0.00,VWS V14.01,2013-09-13 17:32:00,
2013-09-13 12:37:00,92.7,58.5,29.93,SW,223,0.0,0.0,32,0.00,,FEW100,0.00,VWS V14.01,2013-09-13 17:37:00,
2013-09-13 12:40:00,91.8,61.1,29.93,NNW,336,0.0,0.0,36,0.00,,CLR,0.00,VWS V14.01,2013-09-13 17:40:00,
2013-09-13 12:42:00,92.7,61.9,29.93,NW,317,0.0,0.0,36,0.00,,FEW100,0.00,VWS V14.01,2013-09-13 17:42:00,
2013-09-13 12:47:00,92.9,63.6,29.92,NW,317,0.0,0.0,38,0.00,,FEW100,0.00,VWS V14.01,2013-09-13 17:47:00,
2013-09-13 12:50:00,92.7,60.2,29.93,NNW,337,0.0,0.0,34,0.00,,CLR,0.00,VWS V14.01,2013-09-13 17:50:00,
2013-09-13 12:52:00,93.3,63.2,29.92,NW,317,0.0,0.0,37,0.00,,FEW100,0.00,VWS V14.01,2013-09-13 17:52:00,
2013-09-13 12:57:00,93.8,62.8,29.92,NNW,333,0.0,0.0,36,0.00,,FEW100,0.00,VWS V14.01,2013-09-13 17:57:00,
2013-09-13 13:00:00,92.9,62.0,29.92,NW,317,0.0,0.0,36,0.00,,CLR,0.00,VWS V14.01,2013-09-13 18:00:00,
2013-09-13 13:02:00,93.5,61.0,29.92,NNW,333,0.0,0.0,34,0.00,,SCT070,0.00,VWS V14.01,2013-09-13 18:02:00,
2013-09-13 13:07:00,93.5,63.3,29.92,NNW,332,0.0,0.0,37,0.00,,SCT070,0.00,VWS V14.01,2013-09-13 18:07:00,
2013-09-13 13:10:00,93.5,62.6,29.92,NNW,333,0.0,0.0,36,0.00,,CLR,0.00,VWS V14.01,2013-09-13 18:10:00,
2013-09-13 13:12:00,93.8,64.4,29.92,NNW,332,0.0,0.0,38,0.00,,SCT070,0.00,VWS V14.01,2013-09-13 18:12:00,
2013-09-13 13:17:00,93.5,62.6,29.91,NW,324,0.0,0.0,36,0.00,,SCT070,0.00,VWS V14.01,2013-09-13 18:17:00,
2013-09-13 13:20:00,93.5,61.8,29.92,NNW,332,0.0,0.0,35,0.00,,CLR,0.00,VWS V14.01,2013-09-13 18:20:00,
2013-09-13 13:22:00,93.3,62.4,29.91,North,355,0.0,0.0,36,0.00,,SCT070,0.00,VWS V14.01,2013-09-13 18:22:00,
2013-09-13 13:27:00,93.5,60.1,29.91,NE,42,0.0,0.0,33,0.00,,SCT070,0.00,VWS V14.01,2013-09-13 18:27:00,
2013-09-13 13:30:00,93.8,62.8,29.91,NW,325,0.0,0.0,36,0.00,,CLR,0.00,VWS V14.01,2013-09-13 18:30:00,
2013-09-13 13:32:00,93.8,59.5,29.90,ENE,65,0.0,0.0,32,0.00,,SCT070,0.00,VWS V14.01,2013-09-13 18:32:00,
2013-09-13 13:37:00,94.0,60.5,29.90,NE,34,0.0,0.0,33,0.00,,SCT070,0.00,VWS V14.01,2013-09-13 18:37:00,
2013-09-13 13:40:00,93.5,60.1,29.91,NE,42,0.0,0.0,33,0.00,,CLR,0.00,VWS V14.01,2013-09-13 18:40:00,
2013-09-13 13:42:00,94.4,64.1,29.90,NE,34,0.0,0.0,37,0.00,,SCT070,0.00,VWS V14.01,2013-09-13 18:42:00,
2013-09-13 13:47:00,94.4,61.7,29.90,NW,325,0.0,0.0,34,0.00,,SCT070,0.00,VWS V14.01,2013-09-13 18:47:00,
2013-09-13 13:50:00,94.0,62.2,29.90,NE,34,0.0,0.0,35,0.00,,CLR,0.00,VWS V14.01,2013-09-13 18:50:00,
2013-09-13 13:52:00,94.6,62.7,29.90,NW,325,0.0,0.0,35,0.00,,SCT070,0.00,VWS V14.01,2013-09-13 18:52:00,
2013-09-13 13:57:00,94.9,62.2,29.90,NW,325,0.0,0.0,34,0.00,,SCT070,0.00,VWS V14.01,2013-09-13 18:57:00,
2013-09-13 14:00:00,94.4,61.7,29.90,NW,325,0.0,0.0,34,0.00,,CLR,0.00,VWS V14.01,2013-09-13 19:00:00,
2013-09-13 14:02:00,95.4,59.1,29.89,NW,325,0.0,0.0,30,0.00,,SCT090,0.00,VWS V14.01,2013-09-13 19:02:00,
2013-09-13 14:07:00,95.8,62.1,29.89,NW,325,0.0,0.0,33,0.00,,SCT090,0.00,VWS V14.01,2013-09-13 19:07:00,
2013-09-13 14:10:00,94.9,63.8,29.90,NW,325,0.0,0.0,36,0.00,,CLR,0.00,VWS V14.01,2013-09-13 19:10:00,
2013-09-13 14:12:00,96.1,58.7,29.89,NE,50,0.0,0.0,29,0.00,,SCT090,0.00,VWS V14.01,2013-09-13 19:12:00,
2013-09-13 14:17:00,96.3,61.7,29.89,NE,50,0.0,0.0,32,0.00,,SCT090,0.00,VWS V14.01,2013-09-13 19:17:00,
2013-09-13 14:20:00,95.6,62.8,29.89,NW,325,0.0,0.0,34,0.00,,CLR,0.00,VWS V14.01,2013-09-13 19:20:00,
2013-09-13 14:22:00,96.3,59.8,29.89,NE,50,0.0,0.0,30,0.00,,SCT090,0.00,VWS V14.01,2013-09-13 19:22:00,
2013-09-13 14:27:00,96.6,63.7,29.89,NE,50,0.0,0.0,34,0.00,,SCT090,0.00,VWS V14.01,2013-09-13 19:27:00,
2013-09-13 14:30:00,96.3,61.7,29.89,NE,50,0.0,0.0,32,0.00,,CLR,0.00,VWS V14.01,2013-09-13 19:30:00,
2013-09-13 14:32:00,96.8,59.3,29.88,NNW,338,0.0,0.0,29,0.00,,SCT090,0.00,VWS V14.01,2013-09-13 19:32:00,
2013-09-13 14:37:00,96.8,61.2,29.88,NNW,338,0.0,0.0,31,0.00,,SCT090,0.00,VWS V14.01,2013-09-13 19:37:00,
2013-09-13 14:40:00,96.6,64.5,29.89,NE,50,0.0,0.0,35,0.00,,CLR,0.00,VWS V14.01,2013-09-13 19:40:00,
2013-09-13 14:42:00,96.6,60.1,29.88,NNW,338,0.0,0.0,30,0.00,,SCT090,0.00,VWS V14.01,2013-09-13 19:42:00,
2013-09-13 14:47:00,96.6,64.5,29.87,NNW,338,0.0,0.0,35,0.00,,SCT090,0.00,VWS V14.01,2013-09-13 19:47:00,
2013-09-13 14:50:00,96.8,60.3,29.88,NNW,338,0.0,0.0,30,0.00,,CLR,0.00,VWS V14.01,2013-09-13 19:50:00,
2013-09-13 14:52:00,96.3,63.4,29.87,NNE,19,0.0,0.0,34,0.00,,SCT090,0.00,VWS V14.01,2013-09-13 19:52:00,
2013-09-13 14:57:00,96.6,59.2,29.87,NE,40,0.0,0.0,29,0.00,,SCT090,0.00,VWS V14.01,2013-09-13 19:57:00,
2013-09-13 15:00:00,96.6,61.0,29.87,NNW,338,0.0,0.0,31,0.00,,CLR,0.00,VWS V14.01,2013-09-13 20:00:00,
2013-09-13 15:02:00,96.3,55.9,29.86,NNW,336,0.0,0.0,26,0.00,,BKN080,0.00,VWS V14.01,2013-09-13 20:02:00,
2013-09-13 15:07:00,96.1,58.7,29.86,NNW,336,0.0,0.0,29,0.00,,BKN080,0.00,VWS V14.01,2013-09-13 20:07:00,
2013-09-13 15:10:00,96.6,59.2,29.87,NNE,15,0.0,0.0,29,0.00,,CLR,0.00,VWS V14.01,2013-09-13 20:10:00,
2013-09-13 15:12:00,96.3,62.5,29.86,NNW,336,0.0,0.0,33,0.00,,BKN080,0.00,VWS V14.01,2013-09-13 20:12:00,
2013-09-13 15:17:00,96.1,56.7,29.85,NNW,336,0.0,0.0,27,0.00,,BKN080,0.00,VWS V14.01,2013-09-13 20:17:00,
2013-09-13 15:20:00,96.1,54.6,29.86,NNW,336,0.0,0.0,25,0.00,,CLR,0.00,VWS V14.01,2013-09-13 20:20:00,
2013-09-13 15:22:00,96.1,56.7,29.85,NNW,336,0.0,0.0,27,0.00,,BKN080,0.00,VWS V14.01,2013-09-13 20:22:00,
2013-09-13 15:27:00,96.1,63.2,29.85,NNW,336,0.0,0.0,34,0.00,,BKN080,0.00,VWS V14.01,2013-09-13 20:27:00,
2013-09-13 15:30:00,96.1,56.7,29.85,NNW,336,0.0,0.0,27,0.00,,CLR,0.00,VWS V14.01,2013-09-13 20:30:00,
2013-09-13 15:32:00,95.8,57.5,29.84,NNW,336,0.0,0.0,28,0.00,,BKN080,0.00,VWS V14.01,2013-09-13 20:32:00,
2013-09-13 15:37:00,95.1,58.8,29.84,NNW,336,0.0,0.0,30,0.00,,BKN080,0.00,VWS V14.01,2013-09-13 20:37:00,
2013-09-13 15:40:00,96.1,63.2,29.85,NNW,336,0.0,0.0,34,0.00,,CLR,0.00,VWS V14.01,2013-09-13 20:40:00,
2013-09-13 15:42:00,94.4,63.4,29.84,NNW,336,0.0,0.0,36,0.00,,BKN080,0.00,VWS V14.01,2013-09-13 20:42:00,
2013-09-13 15:47:00,94.9,60.5,29.84,NNW,336,0.0,0.0,32,0.00,,BKN080,0.00,VWS V14.01,2013-09-13 20:47:00,
2013-09-13 15:50:00,95.1,61.5,29.84,NNW,336,0.0,0.0,33,0.00,,CLR,0.00,VWS V14.01,2013-09-13 20:50:00,
2013-09-13 15:52:00,94.9,56.7,29.84,NNW,336,0.0,0.0,28,0.00,,BKN080,0.00,VWS V14.01,2013-09-13 20:52:00,
2013-09-13 15:57:00,94.4,61.7,29.84,NNW,336,0.0,0.0,34,0.00,,BKN080,0.00,VWS V14.01,2013-09-13 20:57:00,
2013-09-13 16:00:00,94.9,56.7,29.84,NNW,336,0.0,0.0,28,0.00,,CLR,0.00,VWS V14.01,2013-09-13 21:00:00,
2013-09-13 16:02:00,94.4,60.9,29.83,NNW,336,0.0,0.0,33,0.00,,SCT080,0.00,VWS V14.01,2013-09-13 21:02:00,
2013-09-13 16:07:00,94.6,58.4,29.83,NNW,336,0.0,0.0,30,0.00,,SCT080,0.00,VWS V14.01,2013-09-13 21:07:00,
2013-09-13 16:10:00,94.4,61.7,29.84,NNW,336,0.0,0.0,34,0.00,,CLR,0.00,VWS V14.01,2013-09-13 21:10:00,
2013-09-13 16:12:00,94.9,58.7,29.83,NNW,336,0.0,0.0,30,0.00,,SCT080,0.00,VWS V14.01,2013-09-13 21:12:00,
2013-09-13 16:17:00,95.1,59.7,29.83,NNW,336,0.0,0.0,31,0.00,,SCT080,0.00,VWS V14.01,2013-09-13 21:17:00,
2013-09-13 16:20:00,94.6,58.4,29.83,NNW,336,0.0,0.0,30,0.00,,CLR,0.00,VWS V14.01,2013-09-13 21:20:00,
2013-09-13 16:22:00,94.6,56.5,29.83,NNW,336,0.0,0.0,28,0.00,,SCT080,0.00,VWS V14.01,2013-09-13 21:22:00,
2013-09-13 16:27:00,94.4,59.1,29.83,NNW,336,0.0,0.0,31,0.00,,SCT080,0.00,VWS V14.01,2013-09-13 21:27:00,
2013-09-13 16:30:00,95.1,59.7,29.83,NNW,336,0.0,0.0,31,0.00,,CLR,0.00,VWS V14.01,2013-09-13 21:30:00,
2013-09-13 16:32:00,94.4,58.2,29.83,NNW,336,0.0,0.0,30,0.00,,SCT080,0.00,VWS V14.01,2013-09-13 21:32:00,
2013-09-13 16:37:00,94.2,60.7,29.83,NNW,336,0.0,0.0,33,0.00,,SCT080,0.00,VWS V14.01,2013-09-13 21:37:00,
2013-09-13 16:40:00,94.4,59.1,29.83,NNW,336,0.0,0.0,31,0.00,,CLR,0.00,VWS V14.01,2013-09-13 21:40:00,
2013-09-13 16:42:00,93.8,57.7,29.83,NNW,336,0.0,0.0,30,0.00,,SCT080,0.00,VWS V14.01,2013-09-13 21:42:00,
2013-09-13 16:47:00,93.1,58.9,29.82,NNW,336,0.0,0.0,32,0.00,,SCT080,0.00,VWS V14.01,2013-09-13 21:47:00,
2013-09-13 16:50:00,94.2,60.7,29.83,NNW,336,0.0,0.0,33,0.00,,CLR,0.00,VWS V14.01,2013-09-13 21:50:00,
2013-09-13 16:52:00,92.7,59.4,29.82,NNW,336,0.0,0.0,33,0.00,,SCT080,0.00,VWS V14.01,2013-09-13 21:52:00,
2013-09-13 16:57:00,92.4,58.3,29.82,NNW,336,0.0,0.0,32,0.00,,SCT080,0.00,VWS V14.01,2013-09-13 21:57:00,
2013-09-13 17:00:00,93.1,58.0,29.82,NNW,336,0.0,0.0,31,0.00,,CLR,0.00,VWS V14.01,2013-09-13 22:00:00,
2013-09-13 17:02:00,92.0,60.5,29.81,NNW,336,0.0,0.0,35,0.00,,BKN085,0.00,VWS V14.01,2013-09-13 22:02:00,
2013-09-13 17:07:00,91.6,60.1,29.81,NNW,336,0.0,0.0,35,0.00,,BKN085,0.00,VWS V14.01,2013-09-13 22:07:00,
2013-09-13 17:10:00,92.4,58.3,29.82,NNW,336,0.0,0.0,32,0.00,,CLR,0.00,VWS V14.01,2013-09-13 22:10:00,
2013-09-13 17:12:00,91.3,58.2,29.81,NNW,336,0.0,0.0,33,0.00,,BKN085,0.00,VWS V14.01,2013-09-13 22:12:00,
2013-09-13 17:17:00,90.9,58.7,29.81,NNW,336,0.0,0.0,34,0.00,,BKN085,0.00,VWS V14.01,2013-09-13 22:17:00,
2013-09-13 17:20:00,91.6,60.1,29.81,NNW,336,0.0,0.0,35,0.00,,CLR,0.00,VWS V14.01,2013-09-13 22:20:00,
2013-09-13 17:22:00,90.7,59.3,29.81,NNW,336,0.0,0.0,35,0.00,,BKN085,0.00,VWS V14.01,2013-09-13 22:22:00,
2013-09-13 17:27:00,90.2,61.2,29.81,NNW,336,0.0,0.0,38,0.00,,BKN085,0.00,VWS V14.01,2013-09-13 22:27:00,
2013-09-13 17:30:00,91.1,58.8,29.81,NNW,336,0.0,0.0,34,0.00,,CLR,0.00,VWS V14.01,2013-09-13 22:30:00,
2013-09-13 17:32:00,89.8,60.8,29.81,NNW,336,0.0,0.0,38,0.00,,BKN085,0.00,VWS V14.01,2013-09-13 22:32:00,
2013-09-13 17:37:00,89.6,61.4,29.81,NNW,336,0.0,0.0,39,0.00,,BKN085,0.00,VWS V14.01,2013-09-13 22:37:00,
2013-09-13 17:40:00,90.2,61.2,29.81,NNW,336,0.0,0.0,38,0.00,,CLR,0.00,VWS V14.01,2013-09-13 22:40:00,
2013-09-13 17:42:00,89.6,59.9,29.81,NNW,336,0.0,0.0,37,0.00,,BKN085,0.00,VWS V14.01,2013-09-13 22:42:00,
2013-09-13 17:47:00,89.4,59.0,29.81,NNW,336,0.0,0.0,36,0.00,,BKN085,0.00,VWS V14.01,2013-09-13 22:47:00,
2013-09-13 17:50:00,89.6,59.9,29.81,NNW,336,0.0,0.0,37,0.00,,CLR,0.00,VWS V14.01,2013-09-13 22:50:00,
2013-09-13 17:52:00,89.2,60.3,29.81,NNW,336,0.0,0.0,38,0.00,,BKN085,0.00,VWS V14.01,2013-09-13 22:52:00,
2013-09-13 17:57:00,88.8,61.4,29.81,NNW,336,0.0,0.0,40,0.00,,BKN085,0.00,VWS V14.01,2013-09-13 22:57:00,
2013-09-13 18:00:00,89.4,59.0,29.81,NNW,336,0.0,0.0,36,0.00,,CLR,0.00,VWS V14.01,2013-09-13 23:00:00,
2013-09-13 18:02:00,88.1,61.5,29.81,NNW,336,0.0,0.0,41,0.00,,FEW090,0.00,VWS V14.01,2013-09-13 23:02:00,
2013-09-13 18:07:00,87.5,60.9,29.81,NNW,336,0.0,0.0,41,0.00,,FEW090,0.00,VWS V14.01,2013-09-13 23:07:00,
2013-09-13 18:10:00,88.8,60.7,29.81,NNW,336,0.0,0.0,39,0.00,,CLR,0.00,VWS V14.01,2013-09-13 23:10:00,
2013-09-13 18:12:00,87.1,61.2,29.81,NNW,336,0.0,0.0,42,0.00,,FEW090,0.00,VWS V14.01,2013-09-13 23:12:00,
2013-09-13 18:17:00,86.9,59.7,29.81,NNW,336,0.0,0.0,40,0.00,,FEW090,0.00,VWS V14.01,2013-09-13 23:17:00,
2013-09-13 18:20:00,87.5,60.9,29.81,NNW,336,0.0,0.0,41,0.00,,CLR,0.00,VWS V14.01,2013-09-13 23:20:00,
2013-09-13 18:22:00,87.1,58.4,29.81,NNW,336,0.0,0.0,38,0.00,,FEW090,0.00,VWS V14.01,2013-09-13 23:22:00,
2013-09-13 18:27:00,87.3,59.3,29.81,NNW,336,0.0,0.0,39,0.00,,FEW090,0.00,VWS V14.01,2013-09-13 23:27:00,
2013-09-13 18:30:00,86.9,59.7,29.81,NNW,336,0.0,0.0,40,0.00,,CLR,0.00,VWS V14.01,2013-09-13 23:30:00,
2013-09-13 18:32:00,87.3,59.3,29.81,NNW,336,0.0,0.0,39,0.00,,FEW090,0.00,VWS V14.01,2013-09-13 23:32:00,
2013-09-13 18:37:00,87.5,58.8,29.81,NNW,336,0.0,0.0,38,0.00,,FEW090,0.00,VWS V14.01,2013-09-13 23:37:00,
2013-09-13 18:40:00,87.3,59.3,29.81,NNW,336,0.0,0.0,39,0.00,,CLR,0.00,VWS V14.01,2013-09-13 23:40:00,
2013-09-13 18:42:00,87.5,60.2,29.81,NNW,336,0.0,0.0,40,0.00,,FEW090,0.00,VWS V14.01,2013-09-13 23:42:00,
2013-09-13 18:47:00,87.3,60.8,29.81,NNW,336,0.0,0.0,41,0.00,,FEW090,0.00,VWS V14.01,2013-09-13 23:47:00,
2013-09-13 18:50:00,87.5,58.8,29.81,NNW,336,0.0,0.0,38,0.00,,CLR,0.00,VWS V14.01,2013-09-13 23:50:00,
2013-09-13 18:52:00,87.1,60.6,29.81,NNW,336,0.0,0.0,41,0.00,,FEW090,0.00,VWS V14.01,2013-09-13 23:52:00,
2013-09-13 18:57:00,86.9,60.4,29.81,NNW,336,0.0,0.0,41,0.00,,FEW090,0.00,VWS V14.01,2013-09-13 23:57:00,
2013-09-13 19:00:00,87.3,61.4,29.81,NNW,336,0.0,0.0,42,0.00,,CLR,0.00,VWS V14.01,2013-09-14 00:00:00,
2013-09-13 19:02:00,86.5,62.0,29.81,NNW,336,0.0,0.0,44,0.00,,FEW085,0.00,VWS V14.01,2013-09-14 00:02:00,
2013-09-13 19:07:00,86.2,61.1,29.81,NNW,336,0.0,0.0,43,0.00,,FEW085,0.00,VWS V14.01,2013-09-14 00:07:00,
2013-09-13 19:10:00,86.9,60.4,29.81,NNW,336,0.0,0.0,41,0.00,,CLR,0.00,VWS V14.01,2013-09-14 00:10:00,
2013-09-13 19:12:00,85.8,60.7,29.81,NNW,336,0.0,0.0,43,0.00,,FEW085,0.00,VWS V14.01,2013-09-14 00:12:00,
2013-09-13 19:17:00,85.6,59.2,29.81,NNW,336,0.0,0.0,41,0.00,,FEW085,0.00,VWS V14.01,2013-09-14 00:17:00,
2013-09-13 19:20:00,86.2,60.4,29.81,NNW,336,0.0,0.0,42,0.00,,CLR,0.00,VWS V14.01,2013-09-14 00:20:00,
2013-09-13 19:22:00,85.2,60.2,29.81,NNW,336,0.0,0.0,43,0.00,,FEW085,0.00,VWS V14.01,2013-09-14 00:22:00,
2013-09-13 19:27:00,84.8,61.7,29.81,NNW,336,0.0,0.0,46,0.00,,FEW085,0.00,VWS V14.01,2013-09-14 00:27:00,
2013-09-13 19:30:00,85.6,59.2,29.81,NNW,336,0.0,0.0,41,0.00,,CLR,0.00,VWS V14.01,2013-09-14 00:30:00,
2013-09-13 19:32:00,84.4,60.1,29.81,NNW,336,0.0,0.0,44,0.00,,FEW085,0.00,VWS V14.01,2013-09-14 00:32:00,
2013-09-13 19:37:00,84.0,61.6,29.81,NNW,336,0.0,0.0,47,0.00,,FEW085,0.00,VWS V14.01,2013-09-14 00:37:00,
2013-09-13 19:40:00,85.0,61.9,29.81,NNW,336,0.0,0.0,46,0.00,,CLR,0.00,VWS V14.01,2013-09-14 00:40:00,
2013-09-13 19:42:00,83.6,61.3,29.81,NNW,336,0.0,0.0,47,0.00,,FEW085,0.00,VWS V14.01,2013-09-14 00:42:00,
2013-09-13 19:47:00,83.3,62.2,29.82,NNW,336,0.0,0.0,49,0.00,,FEW085,0.00,VWS V14.01,2013-09-14 00:47:00,
2013-09-13 19:50:00,84.0,60.4,29.81,NNW,336,0.0,0.0,45,0.00,,CLR,0.00,VWS V14.01,2013-09-14 00:50:00,
2013-09-13 19:52:00,82.9,61.2,29.82,NNW,336,0.0,0.0,48,0.00,,FEW085,0.00,VWS V14.01,2013-09-14 00:52:00,
2013-09-13 19:57:00,82.3,61.2,29.82,NNW,336,0.0,0.0,49,0.00,,FEW085,0.00,VWS V14.01,2013-09-14 00:57:00,
2013-09-13 20:00:00,83.3,61.6,29.82,NNW,336,0.0,0.0,48,0.00,,CLR,0.00,VWS V14.01,2013-09-14 01:00:00,
2013-09-13 20:02:00,81.9,60.9,29.82,NNW,336,0.0,0.0,49,0.00,,CLR,0.00,VWS V14.01,2013-09-14 01:02:00,
2013-09-13 20:07:00,81.5,62.2,29.82,NNW,336,0.0,0.0,52,0.00,,CLR,0.00,VWS V14.01,2013-09-14 01:07:00,
2013-09-13 20:10:00,82.5,60.8,29.82,NNW,336,0.0,0.0,48,0.00,,CLR,0.00,VWS V14.01,2013-09-14 01:10:00,
2013-09-13 20:12:00,81.1,61.3,29.82,NNW,336,0.0,0.0,51,0.00,,CLR,0.00,VWS V14.01,2013-09-14 01:12:00,
2013-09-13 20:17:00,80.9,61.6,29.83,NNW,336,0.0,0.0,52,0.00,,CLR,0.00,VWS V14.01,2013-09-14 01:17:00,
2013-09-13 20:20:00,81.7,61.8,29.82,NNW,336,0.0,0.0,51,0.00,,CLR,0.00,VWS V14.01,2013-09-14 01:20:00,
2013-09-13 20:22:00,80.6,61.9,29.83,NNW,336,0.0,0.0,53,0.00,,CLR,0.00,VWS V14.01,2013-09-14 01:22:00,
2013-09-13 20:27:00,80.4,62.2,29.83,NNW,336,0.0,0.0,54,0.00,,CLR,0.00,VWS V14.01,2013-09-14 01:27:00,
2013-09-13 20:30:00,80.9,61.6,29.83,NNW,336,0.0,0.0,52,0.00,,CLR,0.00,VWS V14.01,2013-09-14 01:30:00,
2013-09-13 20:32:00,80.0,61.9,29.83,NNW,336,0.0,0.0,54,0.00,,CLR,0.00,VWS V14.01,2013-09-14 01:32:00,
2013-09-13 20:37:00,79.8,62.2,29.83,NNW,336,0.0,0.0,55,0.00,,CLR,0.00,VWS V14.01,2013-09-14 01:37:00,
2013-09-13 20:40:00,80.4,62.2,29.83,NNW,336,0.0,0.0,54,0.00,,CLR,0.00,VWS V14.01,2013-09-14 01:40:00,
2013-09-13 20:42:00,79.4,61.8,29.83,NNW,336,0.0,0.0,55,0.00,,CLR,0.00,VWS V14.01,2013-09-14 01:42:00,
2013-09-13 20:47:00,79.3,61.8,29.83,NNW,336,0.0,0.0,55,0.00,,CLR,0.00,VWS V14.01,2013-09-14 01:47:00,
2013-09-13 20:50:00,79.8,62.2,29.83,NNW,336,0.0,0.0,55,0.00,,CLR,0.00,VWS V14.01,2013-09-14 01:50:00,
2013-09-13 20:52:00,79.1,62.1,29.83,NNW,336,0.0,0.0,56,0.00,,CLR,0.00,VWS V14.01,2013-09-14 01:52:00,
2013-09-13 20:57:00,78.9,61.9,29.83,NNW,336,0.0,0.0,56,0.00,,CLR,0.00,VWS V14.01,2013-09-14 01:57:00,
2013-09-13 21:00:00,79.3,61.8,29.83,NNW,336,0.0,0.0,55,0.00,,CLR,0.00,VWS V14.01,2013-09-14 02:00:00,
2013-09-13 21:02:00,78.7,62.2,29.84,NNW,336,0.0,0.0,57,0.00,,CLR,0.00,VWS V14.01,2013-09-14 02:02:00,
2013-09-13 21:07:00,78.5,62.5,29.84,NNW,336,0.0,0.0,58,0.00,,CLR,0.00,VWS V14.01,2013-09-14 02:07:00,
2013-09-13 21:10:00,78.9,61.9,29.83,NNW,336,0.0,0.0,56,0.00,,CLR,0.00,VWS V14.01,2013-09-14 02:10:00,
2013-09-13 21:12:00,78.3,62.3,29.84,NNW,336,0.0,0.0,58,0.00,,CLR,0.00,VWS V14.01,2013-09-14 02:12:00,
2013-09-13 21:17:00,78.3,62.3,29.84,NNW,336,0.0,0.0,58,0.00,,CLR,0.00,VWS V14.01,2013-09-14 02:17:00,
2013-09-13 21:20:00,78.5,63.0,29.84,NNW,336,0.0,0.0,59,0.00,,CLR,0.00,VWS V14.01,2013-09-14 02:20:00,
2013-09-13 21:22:00,78.1,62.6,29.84,NNW,336,0.0,0.0,59,0.00,,CLR,0.00,VWS V14.01,2013-09-14 02:22:00,
2013-09-13 21:27:00,78.1,62.6,29.84,NNW,336,0.0,0.0,59,0.00,,CLR,0.00,VWS V14.01,2013-09-14 02:27:00,
2013-09-13 21:30:00,78.3,62.3,29.84,NNW,336,0.0,0.0,58,0.00,,CLR,0.00,VWS V14.01,2013-09-14 02:30:00,
2013-09-13 21:32:00,78.1,62.6,29.85,NNW,336,0.0,0.0,59,0.00,,CLR,0.00,VWS V14.01,2013-09-14 02:32:00,
2013-09-13 21:37:00,78.1,62.6,29.85,NNW,336,0.0,0.0,59,0.00,,CLR,0.00,VWS V14.01,2013-09-14 02:37:00,
2013-09-13 21:40:00,78.1,62.6,29.84,NNW,336,0.0,0.0,59,0.00,,CLR,0.00,VWS V14.01,2013-09-14 02:40:00,
2013-09-13 21:42:00,78.1,62.6,29.85,NNW,336,0.0,0.0,59,0.00,,CLR,0.00,VWS V14.01,2013-09-14 02:42:00,
2013-09-13 21:47:00,78.3,62.8,29.86,NNW,336,0.0,0.0,59,0.00,,CLR,0.00,VWS V14.01,2013-09-14 02:47:00,
2013-09-13 21:50:00,78.1,62.1,29.85,NNW,336,0.0,0.0,58,0.00,,CLR,0.00,VWS V14.01,2013-09-14 02:50:00,
2013-09-13 21:52:00,78.5,63.5,29.86,NNW,336,0.0,0.0,60,0.00,,CLR,0.00,VWS V14.01,2013-09-14 02:52:00,
2013-09-13 21:57:00,78.7,63.7,29.86,NNW,336,0.0,0.0,60,0.00,,CLR,0.00,VWS V14.01,2013-09-14 02:57:00,
2013-09-13 22:00:00,78.3,62.8,29.86,NNW,336,0.0,0.0,59,0.00,,CLR,0.00,VWS V14.01,2013-09-14 03:00:00,
2013-09-13 22:02:00,78.9,64.3,29.86,NNW,336,0.0,0.0,61,0.00,,CLR,0.00,VWS V14.01,2013-09-14 03:02:00,
2013-09-13 22:07:00,78.9,64.3,29.86,NNW,336,0.0,0.0,61,0.00,,CLR,0.00,VWS V14.01,2013-09-14 03:07:00,
2013-09-13 22:10:00,78.7,63.7,29.86,NNW,336,0.0,0.0,60,0.00,,CLR,0.00,VWS V14.01,2013-09-14 03:10:00,
2013-09-13 22:12:00,78.9,64.8,29.86,NNW,336,0.0,0.0,62,0.00,,CLR,0.00,VWS V14.01,2013-09-14 03:12:00,
2013-09-13 22:17:00,79.1,65.4,29.87,NNW,336,0.0,0.0,63,0.00,,CLR,0.00,VWS V14.01,2013-09-14 03:17:00,
2013-09-13 22:20:00,78.9,64.8,29.86,NNW,336,0.0,0.0,62,0.00,,CLR,0.00,VWS V14.01,2013-09-14 03:20:00,
2013-09-13 22:22:00,79.1,65.9,29.87,NNW,336,0.0,0.0,64,0.00,,CLR,0.00,VWS V14.01,2013-09-14 03:22:00,
2013-09-13 22:27:00,79.1,66.3,29.87,NNW,336,0.0,0.0,65,0.00,,CLR,0.00,VWS V14.01,2013-09-14 03:27:00,
2013-09-13 22:30:00,78.9,65.2,29.87,NNW,336,0.0,0.0,63,0.00,,CLR,0.00,VWS V14.01,2013-09-14 03:30:00,
2013-09-13 22:32:00,79.1,66.8,29.87,NNW,336,0.0,0.0,66,0.00,,CLR,0.00,VWS V14.01,2013-09-14 03:32:00,
2013-09-13 22:37:00,79.1,66.8,29.87,NNW,336,0.0,0.0,66,0.00,,CLR,0.00,VWS V14.01,2013-09-14 03:37:00,
2013-09-13 22:40:00,79.1,66.3,29.87,NNW,336,0.0,0.0,65,0.00,,CLR,0.00,VWS V14.01,2013-09-14 03:40:00,
2013-09-13 22:42:00,79.1,66.8,29.87,NNW,336,0.0,0.0,66,0.00,,CLR,0.00,VWS V14.01,2013-09-14 03:42:00,
2013-09-13 22:47:00,79.1,66.8,29.87,NNW,336,0.0,0.0,66,0.00,,CLR,0.00,VWS V14.01,2013-09-14 03:47:00,
2013-09-13 22:50:00,79.1,66.8,29.87,NNW,336,0.0,0.0,66,0.00,,CLR,0.00,VWS V14.01,2013-09-14 03:50:00,
2013-09-13 22:52:00,79.1,67.2,29.87,NNW,336,0.0,0.0,67,0.00,,CLR,0.00,VWS V14.01,2013-09-14 03:52:00,
2013-09-13 22:57:00,79.1,67.2,29.87,NNW,336,0.0,0.0,67,0.00,,CLR,0.00,VWS V14.01,2013-09-14 03:57:00,
2013-09-13 23:00:00,79.1,66.8,29.87,NNW,336,0.0,0.0,66,0.00,,CLR,0.00,VWS V14.01,2013-09-14 04:00:00,
2013-09-13 23:01:00,78.9,67.0,29.87,West,281,0.0,0.0,67,0.00,,CLR,0.00,VWS V14.01,2013-09-14 04:01:00,
2013-09-13 23:02:00,79.1,67.2,29.87,West,281,0.0,0.0,67,0.00,,CLR,0.00,VWS V14.01,2013-09-14 04:02:00,
2013-09-13 23:07:00,79.1,67.2,29.87,West,281,0.0,0.0,67,0.00,,CLR,0.00,VWS V14.01,2013-09-14 04:07:00,
2013-09-13 23:10:00,79.1,67.2,29.87,NNW,336,0.0,0.0,67,0.00,,CLR,0.00,VWS V14.01,2013-09-14 04:10:00,
2013-09-13 23:12:00,78.9,66.6,29.87,West,281,0.0,0.0,66,0.00,,CLR,0.00,VWS V14.01,2013-09-14 04:12:00,
2013-09-13 23:17:00,78.9,66.6,29.88,West,281,0.0,0.0,66,0.00,,CLR,0.00,VWS V14.01,2013-09-14 04:17:00,
2013-09-13 23:20:00,79.1,67.2,29.87,West,281,0.0,0.0,67,0.00,,CLR,0.00,VWS V14.01,2013-09-14 04:20:00,
2013-09-13 23:22:00,78.9,66.6,29.88,West,281,0.0,0.0,66,0.00,,CLR,0.00,VWS V14.01,2013-09-14 04:22:00,
2013-09-13 23:27:00,78.9,65.7,29.88,West,281,0.0,0.0,64,0.00,,CLR,0.00,VWS V14.01,2013-09-14 04:27:00,
2013-09-13 23:30:00,78.9,66.6,29.88,West,281,0.0,0.0,66,0.00,,CLR,0.00,VWS V14.01,2013-09-14 04:30:00,
2013-09-13 23:32:00,78.7,65.1,29.88,West,281,0.0,0.0,63,0.00,,CLR,0.00,VWS V14.01,2013-09-14 04:32:00,
2013-09-13 23:37:00,78.5,64.9,29.88,West,281,0.0,0.0,63,0.00,,CLR,0.00,VWS V14.01,2013-09-14 04:37:00,
2013-09-13 23:40:00,78.9,66.2,29.88,West,281,0.0,0.0,65,0.00,,CLR,0.00,VWS V14.01,2013-09-14 04:40:00,
2013-09-13 23:42:00,78.3,64.7,29.88,West,281,0.0,0.0,63,0.00,,CLR,0.00,VWS V14.01,2013-09-14 04:42:00,
2013-09-13 23:47:00,78.1,64.5,29.88,West,281,0.0,0.0,63,0.00,,CLR,0.00,VWS V14.01,2013-09-14 04:47:00,
2013-09-13 23:50:00,78.5,64.9,29.88,West,281,0.0,0.0,63,0.00,,CLR,0.00,VWS V14.01,2013-09-14 04:50:00,
2013-09-13 23:52:00,78.0,63.9,29.88,West,281,0.0,0.0,62,0.00,,CLR,0.00,VWS V14.01,2013-09-14 04:52:00,
2013-09-13 23:57:00,77.8,63.8,29.88,West,281,0.0,0.0,62,0.00,,CLR,0.00,VWS V14.01,2013-09-14 04:57:00,